+ View the NASA Portal
+ Center for Near-Earth Object Studies
IMPORTANT:
The SSD Announcement email list is now available. Major changes are coming in the near future, including possible hostname and/or URL changes. To be notified of such changes, subscribe to this email list.
Please visit
this page
for more details.
Don't show this message again
JPL Small-Body Database Browser
Search:
[
help
]
437457 (2013 YQ16)
Classification:
Main-belt Asteroid
SPK-ID:
2437457
[
Ephemeris
|
Orbit Diagram
|
Orbital Elements
|
Mission Design
|
Physical Parameters
|
Discovery Circumstances
]
[ show orbit diagram ]
Orbital Elements at Epoch 2458600.5 (2019-Apr-27.0) TDB
Reference:
JPL 19
(heliocentric ecliptic J2000)
Element
Value
Uncertainty (1-sigma)
Units
e
.1075247692996898
8.8846e-08
a
2.277453744973334
3.837e-08
au
q
2.032571056454362
2.3063e-07
au
i
6.369361375326834
5.3218e-06
deg
node
118.1617635067281
5.2477e-05
deg
peri
301.1251414425717
5.8391e-05
deg
M
239.8071200666237
2.5501e-05
deg
t
p
2459019.630258611448
(2020-Jun-19.13025861)
9.1614e-05
TDB
period
1255.372973704922
3.44
3.1725e-05
8.686e-08
d
yr
n
.2867673651899239
7.2471e-09
deg/d
Q
2.522336433492306
4.2496e-08
au
Orbit Determination Parameters
# obs. used (total)
182
data-arc span
4204 days (11.51 yr)
first obs. used
2008-03-15
last obs. used
2019-09-18
planetary ephem.
DE431
SB-pert. ephem.
SB431-N16
condition code
0
norm. resid. RMS
.59688
source
ORB
producer
Otto Matic
solution date
2019-Sep-24 07:37:38
Additional Information
Earth MOID
= 1.05356 au
Jupiter MOID
= 2.74146 au
T_jup
= 3.592
[ show covariance matrix ]
[
Ephemeris
|
Orbit Diagram
|
Orbital Elements
|
Mission Design
|
Physical Parameters
|
Discovery Circumstances
]
Physical Parameter Table
Parameter
Symbol
Value
Units
Sigma
Reference
Notes
absolute magnitude
H
17.4
n/a
MPO440810
437457 (2013 YQ16)
Discovered 2008-Mar-15 by Mt. Lemmon Survey at Mount Lemmon
Reference:
Last Updated:
2015-06-04
Alternate Designations
2013 YQ16
= 2008 KO29 = 2011 FR78
[
Ephemeris
|
Orbit Diagram
|
Orbital Elements
|
Mission Design
|
Physical Parameters
|
Discovery Circumstances
]
2019-Dec-10 17:09 UT
(server date/time)
Site Manager:
Ryan S. Park
Webmaster
:
Alan B. Chamberlin